Flag for Switzerland Weather past 2 weeks in Aarau, Aargau, Switzerland

Now
51 °F

Cool.


Feels Like: 51 °F
Forecast: 43 / 66 °F
Wind: No wind

Location: Wynau

Current Time: May 26, 2015 at 6:28:03 AM

Latest Report: May 26, 2015 at 5:00 AM


Visibility: N/A

Pressure: 29.98 "Hg

Humidity: 97%

Dew point: 51 °F

Location of AarauLocation

Historic Weather in Aarau — Graph

°F

Aarau temperature yesterday

Maximum temperature yesterday: 64 °F (at 12:00 PM)
Minimum temperature yesterday: 53 °F (at 6:00 AM)
Average temperature yesterday: 57 °F

Past Weeks' High & Low Weather Summary

 TemperatureHumidityPressure
High81 °F (May 13, 4:00 PM)100% (May 22, 1:00 AM)30.34 "Hg (May 22, 1:00 AM)
Low42 °F (May 23, 6:00 AM)34% (May 13, 3:00 PM)29.72 "Hg (May 18, 6:00 PM)
Average57 °F74%30.07 "Hg
* Reported May 11 4:00 AM — May 26 4:00 AM, Aarau, Weather by CustomWeather, © 2015

Note: Actual official high and low records may vary slightly from our data, if they occured in-between our weather recording intervals... More about our weather records

Advertising

Aarau weather history for previous 24 hours

 ConditionsComfort  
Time TempWeatherWind HumidityBarometerVisibility
4:00 AM
Tue, May 26
51 °FCool.No wind98%29.98 "HgN/A
3:00 AM51 °FCool.1 mph100%29.98 "HgN/A
2:00 AM50 °FCool.1 mph100%29.99 "HgN/A
1:00 AM51 °FCool.2 mph99%29.99 "HgN/A
12:00 AM53 °FCool.2 mph97%29.99 "HgN/A
10:00 PM
Mon, May 25
54 °FCool.1 mph96%29.98 "HgN/A
9:00 PM54 °FCool.3 mph95%29.97 "HgN/A
8:00 PM59 °FCool.5 mph70%29.93 "HgN/A
7:00 PM61 °FCool.2 mph73%29.92 "HgN/A
6:00 PM60 °FCool.1 mph80%29.93 "HgN/A
5:00 PM59 °FCool.1 mph79%29.93 "HgN/A
4:00 PM56 °FCool.1 mph95%29.96 "HgN/A
3:00 PM57 °FCool.1 mph84%29.97 "HgN/A
2:00 PM61 °FCool.3 mph65%29.95 "HgN/A
1:00 PM64 °FMild.9 mph60%29.95 "HgN/A
12:00 PM64 °FMild.3 mph63%29.96 "HgN/A
11:00 AM61 °FCool.2 mph69%29.99 "HgN/A
10:00 AM60 °FCool.1 mph71%30.00 "HgN/A
9:00 AM58 °FCool.1 mph78%30.01 "HgN/A
8:00 AM55 °FCool.No wind84%30.02 "HgN/A
7:00 AM53 °FCool.No wind93%30.03 "HgN/A
6:40 AM53 °FCool.1 mph92%30.03 "HgN/A
6:00 AM53 °FCool.1 mph91%30.03 "HgN/A
Weather by CustomWeather, © 2015

See weather overviewHow to use our weather pages